GFSCGP_2pvu_pres_000.txt.gz
Presure
140 140 143 216 236 212 239 224 217 217 213 208 212 206 202 195 199 195 191 198 191 184 173 192 193 193 181 180 173 179 174 172 173 170 168 159 163 161 173 177 184 188 159 172
164 211 219 220 182 208 207 216 224 209 209 207 199 205 197 193 193 186 187 188 185 187 171 171 186 181 183 183 170 161 175 174 168 165 158 146 146 184 178 186 159 193 194 152
210 220 227 212 206 213 209 219 210 209 207 204 209 197 193 193 191 190 187 174 173 178 160 169 170 168 163 152 179 169 185 187 184 168 144 151 180 183 150 144 168 135 145 183
217 219 207 206 211 197 210 215 206 205 203 208 211 204 198 189 194 187 189 185 164 185 164 181 177 165 174 102 126 178 179 173 160 179 174 135 182 184 136 176 173 138 181 179
217 206 207 210 215 199 190 214 209 206 209 200 213 215 211 201 191 196 179 182 186 191 100 131 171 183 181 178 131 171 172 171 169 176 155 170 169 113 124 151 185 190 190 190
229 206 200 204 200 191 206 212 210 201 206 202 199 198 202 202 202 185 169 178 175 184 111 132 148 121 173 172 170 173 162 165 170 172 127 172 167 143 183 190 192 198 211 222
231 222 202 203 196 192 161 214 197 204 207 185 193 193 195 190 191 187 186 173 185 194 142 138 144 95 184 170 174 166 161 124 131 121 182 165 145 191 205 197 208 219 223 211
251 223 216 207 199 196 196 185 204 190 182 183 175 184 186 199 191 198 205 198 188 168 161 162 127 184 182 179 177 127 130 177 136 143 185 180 151 203 216 216 223 141 206 230
237 229 226 211 188 177 198 185 194 195 190 178 191 196 208 206 198 190 188 184 172 184 109 179 176 172 158 175 116 183 173 157 184 186 203 211 214 211 201 213 207 199 218 245
233 237 133 189 184 189 179 186 191 186 140 190 191 188 203 172 175 96 180 183 143 175 175 177 178 183 151 109 123 183 191 191 206 202 204 206 185 178 153 229 207 243 266 270
253 188 192 190 187 187 189 186 186 188 192 188 183 186 159 174 176 178 171 153 184 175 130 139 149 182 136 185 193 148 205 209 200 202 209 205 196 207 221 250 261 265 256 288
197 195 193 192 189 188 137 188 195 122 186 168 174 144 169 173 161 161 171 172 177 178 176 179 113 184 192 209 208 202 202 205 214 221 202 222 231 236 241 187 255 285 281 297
203 197 194 192 192 189 192 189 184 176 174 171 166 178 179 169 176 181 171 181 126 145 177 155 120 190 164 195 211 206 196 202 205 215 229 229 236 237 254 266 276 298 310 320
194 200 192 189 191 177 186 171 164 172 173 168 177 177 184 175 176 181 169 131 169 193 191 191 206 200 207 204 206 207 208 219 224 229 235 233 234 243 276 291 307 316 304 278
180 175 184 174 186 179 182 166 183 177 179 175 177 173 137 121 165 169 167 205 195 140 111 118 204 201 191 213 210 216 224 228 227 224 227 238 252 311 308 326 319 289 303 345
179 180 185 180 192 181 177 178 189 184 179 184 185 172 176 181 161 179 190 196 212 119 206 203 200 207 212 207 213 226 227 231 230 241 250 254 268 318 326 289 280 347 414 417
179 184 165 186 168 173 182 187 179 176 181 175 173 163 167 132 180 115 191 209 206 211 204 209 201 204 197 221 231 235 236 235 253 260 277 319 318 297 282 332 369 405 417 413
182 181 179 177 187 182 183 178 177 170 174 166 163 178 188 176 201 198 201 210 193 212 206 202 200 212 215 226 216 230 239 247 278 293 317 315 280 319 345 414 421 422 415 409
185 188 188 189 190 190 188 178 176 174 166 178 182 161 119 200 194 195 188 167 130 126 131 211 212 212 227 227 227 243 298 283 303 321 289 274 339 405 399 404 411 403 390 380
192 184 185 185 189 101 176 177 178 185 118 170 202 198 199 199 200 206 193 180 125 129 151 210 200 230 225 236 248 307 278 318 328 276 285 358 413 389 381 404 390 377 368 361
184 191 194 178 188 176 178 193 176 110 162 164 202 200 197 214 166 202 212 205 198 216 216 224 229 225 247 285 308 297 321 313 282 330 405 409 385 395 396 382 371 362 351 346
176 182 186 120 191 184 197 190 184 130 196 198 165 189 207 200 188 202 201 211 215 219 208 225 226 240 276 303 310 299 320 282 346 424 398 382 403 391 380 366 355 346 344 350
182 195 184 189 180 196 204 196 189 89 191 191 205 208 201 189 204 203 215 215 222 217 227 226 244 254 314 316 310 322 283 385 412 396 383 402 386 376 364 352 345 352 353 344
173 179 200 191 194 202 179 194 199 194 186 206 206 190 207 210 199 221 231 220 212 226 233 246 299 316 314 318 315 296 425 412 403 404 401 387 374 357 351 344 354 348 348 354
189 192 198 144 192 155 163 110 170 195 195 194 192 211 205 199 213 231 230 226 225 240 251 315 318 322 326 288 350 428 427 404 404 395 384 369 353 347 342 351 339 356 374 461
197 198 201 194 199 202 201 201 183 189 199 173 203 202 198 215 219 235 224 236 241 254 320 328 330 300 276 358 444 429 413 402 391 375 363 354 344 344 348 334 344 453 447 432

GFSCGP_2pvu_pres_003.txt.gz
Presure
230 176 205 134 132 133 140 240 219 216 207 209 216 214 211 209 200 199 195 186 190 190 192 188 180 192 190 172 166 182 181 183 143 187 182 152 175 166 175 180 176 161 180 171
133 131 126 129 139 196 220 207 210 206 214 224 219 212 199 196 196 191 190 188 193 192 190 185 182 188 200 167 178 174 177 184 175 128 173 164 177 173 176 176 176 184 164 149
133 130 186 145 220 221 216 213 202 210 197 212 204 201 208 209 207 202 200 199 198 197 200 189 193 193 126 116 166 97 195 178 189 182 181 173 171 169 179 168 164 168 126 156
141 224 190 214 216 210 211 205 199 191 221 212 207 205 211 216 209 206 204 200 198 196 181 175 187 188 116 156 96 100 189 165 183 188 187 168 170 179 168 178 179 167 163 168
240 218 219 220 217 212 205 210 197 208 220 210 203 210 203 200 195 193 190 191 191 189 189 186 188 174 184 152 96 179 181 182 178 158 166 176 138 131 130 181 146 194 201 206
231 227 231 217 216 211 207 197 196 216 201 209 212 205 190 187 181 179 174 185 195 197 193 134 183 179 163 181 175 174 164 150 123 127 183 182 158 188 192 202 207 212 204 215
237 231 233 226 213 216 212 202 186 187 196 208 194 189 183 184 194 198 200 193 187 183 185 180 174 179 174 174 177 143 112 116 150 188 156 196 198 204 210 215 217 213 215 196
253 240 236 234 221 217 215 199 200 181 182 185 197 195 196 201 195 187 180 172 167 179 168 135 167 179 150 132 180 113 178 150 192 199 200 204 153 203 219 207 194 202 189 236
255 240 240 247 234 222 215 187 187 184 185 189 188 200 200 154 176 168 160 179 167 168 175 185 179 170 179 173 152 179 189 143 194 205 204 202 196 206 226 227 143 231 231 235
246 262 239 230 233 233 189 187 186 189 184 186 194 190 172 159 170 172 180 184 180 180 178 179 169 163 144 166 144 199 195 203 208 208 199 208 210 221 217 206 226 239 249 261
211 200 198 198 197 192 191 191 191 189 170 195 173 178 176 175 172 178 179 180 170 169 174 169 176 181 194 192 203 151 123 199 203 210 208 204 206 227 221 228 238 253 274 275
199 203 207 205 199 198 193 194 193 186 190 173 180 173 173 171 174 178 183 173 171 163 164 182 193 182 122 201 206 205 211 212 205 199 215 219 225 224 231 262 266 288 278 277
188 187 185 195 197 200 189 186 172 180 183 161 180 179 180 172 176 175 168 170 168 169 181 196 197 205 209 200 199 200 198 207 211 215 211 219 217 229 246 275 315 297 293 331
205 204 201 184 189 178 186 193 198 166 174 166 177 170 171 172 173 173 170 168 150 180 188 198 195 195 202 205 204 202 213 211 214 211 226 218 231 241 297 315 300 309 324 280
182 181 188 185 182 187 179 158 178 163 185 186 176 173 175 177 175 168 171 180 157 176 198 195 203 200 198 127 135 195 160 170 218 217 213 226 250 323 315 318 320 315 287 360
184 184 186 183 187 179 182 193 119 186 188 179 184 178 177 179 170 180 120 157 197 197 197 205 201 124 131 123 131 137 216 227 221 225 241 298 319 314 315 323 307 329 444 415
185 185 182 184 183 187 190 175 182 136 182 184 187 179 180 162 142 183 198 194 192 200 202 202 190 203 201 210 212 214 228 225 230 252 294 320 321 322 319 292 366 420 401 406
191 202 190 188 195 189 175 186 191 169 176 179 177 172 112 172 132 196 194 196 199 190 202 189 205 210 208 212 205 238 223 240 269 307 330 328 320 285 301 421 426 402 399 399
210 207 172 178 178 187 190 187 177 185 185 184 180 109 88 190 191 195 192 197 195 200 190 204 203 215 220 219 229 226 255 294 313 334 315 274 278 354 430 414 413 402 393 384
179 187 185 188 185 193 190 184 192 184 178 187 188 118 97 195 195 190 192 198 203 203 205 197 219 222 240 224 249 263 310 319 341 274 283 308 430 431 416 398 400 392 379 366
192 188 187 186 192 189 190 179 109 196 183 89 160 192 196 196 177 197 203 204 205 208 228 219 217 233 250 277 296 316 319 286 274 282 324 442 424 407 403 394 383 373 363 353
177 184 191 188 186 183 172 184 165 191 197 199 190 160 197 193 202 201 203 213 207 218 212 227 248 286 315 312 310 287 269 280 296 341 437 418 402 394 392 376 365 357 362 364
184 192 176 190 191 190 194 197 197 192 192 190 188 185 202 177 106 174 211 226 217 217 241 251 271 310 304 308 255 283 280 321 438 431 415 397 394 387 372 354 353 357 341 360
184 192 193 180 88 151 172 193 187 187 180 194 200 203 207 211 211 223 223 218 225 242 254 268 310 321 313 306 269 304 353 435 415 405 396 390 383 369 349 348 346 337 351 441
146 186 193 186 200 198 199 190 99 192 195 200 197 212 207 210 221 215 219 257 292 330 284 320 314 257 262 293 325 437 426 407 390 392 392 381 363 349 340 339 336 346 411 445
200 195 198 114 196 196 196 190 185 193 200 195 203 204 197 223 212 235 245 258 317 290 276 309 291 280 311 412 427 413 398 384 381 378 380 365 357 335 337 330 333 371 439 423

GFSCGP_2pvu_pres_006.txt.gz
Presure
234 237 229 257 230 229 242 227 185 125 141 157 213 218 225 224 223 210 201 204 202 202 202 200 202 205 209 194 200 192 192 98 123 199 194 191 187 181 181 184 175 173 177 171
233 227 222 220 185 177 136 160 227 178 209 167 207 207 216 210 200 200 207 210 213 215 216 214 205 196 194 190 164 190 193 146 106 171 175 177 183 178 166 165 176 186 170 186
216 150 225 176 130 222 171 220 225 210 176 198 201 216 207 200 207 217 217 212 208 203 195 191 190 191 194 194 194 193 187 95 164 180 177 179 148 183 156 173 183 160 194 182
228 146 138 135 219 164 216 231 216 213 206 193 213 212 205 208 181 208 193 184 184 189 198 196 199 199 188 181 147 182 182 188 187 168 169 180 181 179 188 177 194 194 159 206
139 132 138 229 224 225 224 219 212 199 196 210 212 210 203 217 198 183 179 190 195 201 192 181 175 171 180 170 167 182 171 168 162 164 178 107 139 188 198 197 139 204 204 212
193 224 234 237 220 227 218 221 207 199 194 203 199 203 209 193 193 188 188 195 199 180 177 169 166 176 176 174 181 177 175 175 181 137 117 132 195 166 205 206 209 206 195 199
248 251 245 231 237 230 218 217 212 216 198 190 188 166 200 199 195 191 195 146 177 170 171 179 183 173 171 175 177 172 178 165 170 113 153 152 186 203 205 204 212 216 216 221
233 233 249 246 237 236 230 220 217 196 194 184 186 190 189 197 190 194 181 175 168 168 174 128 175 173 173 177 115 180 129 161 198 137 123 206 198 194 206 198 218 221 227 219
238 242 269 247 234 246 254 235 191 185 192 186 190 188 192 187 179 178 176 177 177 172 177 183 178 174 182 170 179 173 187 197 193 194 195 203 207 202 210 213 217 226 225 226
211 211 206 206 231 213 240 218 193 192 190 191 194 196 176 177 169 179 176 173 180 178 180 173 179 172 171 179 172 132 201 196 192 197 205 207 207 205 214 213 216 228 223 225
197 199 208 138 203 200 197 199 197 194 192 186 186 193 176 173 172 178 184 182 172 179 180 177 154 168 180 183 111 198 194 203 202 203 203 213 197 216 218 213 227 223 227 249
193 192 186 189 193 198 195 208 210 184 184 188 189 177 175 168 170 182 181 179 172 177 178 174 160 101 180 200 192 196 203 201 202 121 125 128 218 217 212 231 219 244 258 274
196 193 194 199 194 195 179 175 184 187 183 170 174 171 167 177 187 186 182 176 178 178 159 153 189 200 191 194 197 200 201 167 119 129 136 221 215 215 232 247 254 270 289 342
195 192 190 181 174 186 189 191 186 178 175 171 178 185 188 181 178 178 182 182 177 175 158 198 190 195 198 197 194 202 203 204 204 213 213 217 238 247 263 291 314 325 352 272
194 190 187 188 180 182 183 186 189 183 191 185 169 183 184 184 178 178 184 143 177 196 197 194 193 192 191 195 201 202 206 210 215 208 243 255 252 286 323 322 329 284 283 294
189 189 195 189 194 195 203 202 202 195 180 178 185 187 181 177 188 185 180 185 193 185 191 192 190 193 198 202 204 210 206 220 216 253 261 262 334 315 322 261 288 280 383 435
198 201 203 197 194 202 193 178 186 189 190 192 187 181 184 183 190 161 115 129 186 190 190 182 192 200 200 210 210 220 217 240 262 315 317 321 321 257 285 284 358 447 427 410
194 194 187 196 181 174 185 184 182 185 185 194 189 183 182 177 193 195 100 192 189 188 181 196 201 211 208 210 224 219 253 282 320 311 301 267 274 283 329 452 437 420 410 401
205 207 161 176 196 193 190 183 180 190 186 185 167 179 177 189 194 191 106 192 145 193 201 200 206 202 218 229 227 259 322 325 315 334 350 287 284 435 437 424 409 403 396 382
200 182 202 187 181 175 177 183 183 179 180 180 183 189 175 189 189 180 189 182 194 200 199 206 225 230 225 244 338 331 274 268 346 286 275 310 443 423 408 402 400 394 378 357
176 178 187 183 167 171 176 180 179 179 186 187 194 196 197 197 196 191 189 197 206 207 205 229 232 227 297 315 276 340 346 297 280 291 354 428 416 397 392 391 392 376 354 350
188 181 188 188 185 183 191 187 188 189 201 199 197 193 157 197 194 101 202 208 211 217 232 223 280 294 334 275 341 319 290 287 320 429 418 405 394 384 382 390 374 353 348 339
194 179 113 189 190 183 184 191 198 187 195 196 194 191 191 194 198 211 204 218 220 239 227 277 306 331 271 335 307 284 287 394 429 413 401 386 381 375 387 372 350 347 335 337
180 190 180 176 192 194 190 190 197 192 191 197 203 190 200 200 211 205 215 220 251 284 293 319 325 339 334 276 289 319 444 429 410 412 467 418 380 370 371 351 344 335 335 350
191 185 186 187 188 193 131 193 192 194 202 200 195 193 203 216 217 207 244 266 280 335 329 332 315 271 291 298 393 436 415 428 504 475 433 387 370 372 354 337 333 334 328 349
166 189 188 189 93 196 159 191 196 204 194 191 205 207 201 208 242 243 269 268 276 331 295 258 285 290 296 449 427 507 528 438 389 432 386 373 367 357 336 334 326 329 322 346

GFSCGP_2pvu_pres_009.txt.gz
Presure
250 262 257 255 248 245 255 261 254 247 239 241 230 133 133 134 217 222 222 208 212 215 229 233 232 218 202 201 197 202 200 199 194 186 121 97 184 180 180 168 182 180 183 185
228 220 233 239 241 240 232 218 224 225 222 134 148 206 221 221 216 219 213 209 214 223 211 199 193 197 205 206 198 190 182 184 186 103 170 187 177 177 176 172 128 126 202 201
182 179 233 225 227 228 227 223 173 138 137 224 132 215 211 209 220 215 208 211 215 198 188 81 210 208 187 180 185 170 171 184 183 183 179 184 179 181 193 200 168 203 188 204
166 228 230 233 209 224 227 135 131 174 225 211 209 209 213 216 218 217 217 214 195 188 198 207 194 182 180 182 173 190 186 181 179 179 178 178 179 179 142 193 134 193 192 139
229 243 142 227 225 132 132 151 224 228 215 212 205 209 213 207 214 221 195 189 191 199 88 195 181 183 173 169 141 185 184 182 181 181 170 125 169 181 138 143 125 192 194 201
247 241 234 136 167 225 231 215 225 218 220 202 202 196 198 200 191 204 195 190 196 200 196 179 181 175 172 174 179 180 179 180 173 179 163 169 174 123 144 175 192 202 201 201
249 234 241 253 249 232 233 231 227 222 209 215 208 193 196 194 194 188 192 195 195 195 182 182 178 181 178 176 182 178 179 179 175 178 184 171 192 112 194 202 200 207 205 212
231 241 244 260 253 253 241 237 237 231 220 206 191 200 193 194 192 188 194 192 190 182 182 183 180 182 174 173 179 181 180 178 183 182 186 198 194 195 197 199 207 212 214 160
219 210 234 245 258 238 236 242 248 265 231 198 191 193 205 194 191 192 194 179 175 171 172 179 177 175 175 176 182 181 168 181 174 199 190 195 201 202 204 208 125 139 177 223
213 216 215 209 200 200 201 200 224 219 213 193 192 194 192 187 187 185 187 182 180 177 187 182 179 184 170 182 181 150 180 155 199 191 198 199 201 207 214 197 210 225 228 216
200 201 192 197 198 201 193 204 203 201 201 196 192 196 188 189 190 179 174 176 186 186 177 180 181 185 182 132 180 185 196 197 203 195 196 204 210 213 211 222 224 226 234 248
190 192 194 194 190 197 195 189 188 193 192 193 191 195 188 178 176 178 189 189 178 180 183 183 179 179 124 182 189 195 201 190 193 199 204 205 205 214 226 232 232 241 254 271
189 191 197 198 201 204 199 188 180 179 186 191 185 180 174 178 190 185 171 187 186 182 179 176 133 133 188 191 200 197 194 192 200 202 206 204 224 236 215 241 253 346 339 292
192 196 194 195 188 183 177 174 180 180 179 176 187 185 193 190 180 180 184 183 182 179 179 105 121 186 194 195 187 195 187 201 202 212 205 227 226 247 260 293 313 268 297 311
197 192 189 190 191 193 199 189 184 188 200 197 194 184 171 182 183 184 184 187 186 181 99 134 179 125 194 186 195 188 203 205 209 225 236 249 251 279 364 275 339 299 300 315
190 191 188 196 198 203 196 205 204 196 192 184 181 182 180 184 188 182 183 187 183 193 183 157 105 117 198 199 191 203 208 226 233 251 257 268 351 361 353 293 297 316 395 437
191 188 187 193 197 191 198 184 187 197 189 190 182 182 182 186 183 180 89 191 189 192 198 149 188 193 192 197 210 219 235 242 283 349 349 346 346 299 305 314 339 433 429 409
184 187 184 197 198 196 180 187 189 179 179 178 180 178 183 184 181 185 193 194 193 190 192 195 192 189 208 211 232 233 243 325 327 295 271 295 302 303 323 401 428 412 403 390
192 195 199 203 189 192 188 191 186 185 183 166 165 178 182 188 188 198 187 191 194 196 191 193 189 211 216 227 238 238 267 294 283 262 288 296 325 360 431 417 402 390 389 396
182 188 203 188 206 180 179 175 181 180 183 180 187 181 179 190 185 188 191 191 191 196 199 210 213 233 229 232 277 275 310 294 297 317 312 341 443 417 408 399 439 398 384 382
194 188 207 204 169 175 185 180 189 190 184 184 191 193 187 189 196 191 195 200 194 196 214 214 219 242 250 285 307 314 268 297 308 321 409 427 414 487 482 453 409 385 380 356
185 205 143 209 178 162 171 173 185 185 181 182 189 191 193 194 196 194 188 202 211 209 222 219 253 270 277 288 327 290 299 312 334 435 418 477 492 432 424 410 386 379 354 346
199 209 205 205 190 190 182 173 181 166 188 195 198 195 200 197 195 194 199 212 217 220 244 257 263 271 285 317 319 313 320 395 431 436 501 400 390 435 404 387 373 351 341 331
194 205 190 181 187 181 179 178 184 191 195 200 198 198 198 198 203 206 216 221 225 236 254 258 263 276 287 331 321 328 454 439 538 411 516 482 433 392 385 367 348 337 332 330
194 203 174 181 161 185 186 186 189 197 199 195 201 199 199 206 207 213 215 221 232 246 259 259 275 314 339 327 331 442 456 425 440 494 451 407 376 353 360 348 335 332 324 331
200 186 185 191 184 189 187 194 201 200 198 200 193 199 210 209 213 226 223 235 244 274 277 270 279 315 337 337 436 447 420 397 381 384 382 363 372 360 344 338 331 322 327 317

GFSCGP_2pvu_pres_012.txt.gz
Presure
234 233 235 228 224 226 220 226 224 130 126 146 253 236 235 239 233 138 231 180 231 227 222 220 203 218 206 204 193 205 214 213 190 186 188 189 189 187 180 176 176 170 184 184
205 230 228 227 231 237 241 242 246 262 245 223 234 234 231 184 133 164 230 219 221 224 217 212 208 203 194 195 216 216 192 189 186 181 166 182 186 183 184 182 176 184 189 159
229 229 228 228 218 141 193 242 233 231 223 214 220 187 134 153 218 214 221 223 221 213 215 209 198 195 201 207 210 191 185 183 181 178 179 185 189 174 186 177 161 124 188 199
219 182 232 146 146 149 217 228 232 227 229 153 139 217 239 217 210 217 221 210 216 212 213 194 193 208 207 216 193 181 182 181 184 183 183 182 190 187 186 185 190 193 157 194
139 148 212 226 227 223 222 221 222 194 222 222 223 228 215 206 222 206 210 216 216 197 198 196 206 209 204 184 184 185 182 189 186 183 177 189 182 152 188 192 193 110 202 202
218 225 236 235 237 235 231 230 225 189 215 217 221 216 223 208 205 206 199 192 192 195 193 199 204 189 181 182 183 180 183 187 183 182 185 183 184 191 189 190 196 197 200 196
253 249 238 239 245 226 216 234 227 229 232 225 220 217 213 213 213 199 199 197 194 192 195 199 189 180 174 180 186 188 185 185 185 187 141 184 187 137 196 198 203 195 190 204
233 240 148 251 259 278 250 254 245 240 237 233 235 230 227 191 208 188 191 192 190 192 192 191 190 177 178 185 185 182 182 183 185 177 191 192 198 190 199 199 199 193 210 212
222 214 198 210 227 230 229 230 231 231 232 230 238 243 231 191 185 193 194 195 186 197 192 177 173 187 187 183 183 188 185 181 140 189 197 192 195 195 186 204 192 212 221 224
208 213 212 213 208 205 202 203 204 202 200 200 198 201 212 186 187 190 193 190 190 186 179 185 187 180 175 187 187 150 182 123 195 187 189 196 195 193 201 211 218 224 232 240
203 202 201 199 195 195 193 192 194 190 196 195 196 207 199 197 188 189 184 178 175 184 185 184 173 190 185 187 188 186 126 187 192 191 195 196 198 199 212 219 233 243 241 247
199 194 197 194 196 199 196 198 199 199 199 191 192 185 171 178 188 187 186 191 193 189 183 190 184 185 94 190 187 194 128 97 190 196 195 201 194 214 233 242 246 240 272 275
193 195 194 194 200 195 199 198 187 186 185 183 182 183 182 183 192 193 195 186 187 187 181 183 186 181 181 148 191 185 193 193 193 201 205 212 215 228 247 246 263 299 291 296
189 190 192 194 194 194 194 186 186 184 183 184 191 188 186 204 203 185 181 188 182 186 189 184 181 183 188 191 191 190 196 201 200 208 210 222 239 241 263 308 332 315 306 312
203 194 194 189 190 188 187 189 194 202 199 199 198 200 195 186 179 188 181 178 191 180 178 181 183 166 191 190 195 197 194 205 211 222 229 260 279 293 339 330 320 323 327 407
192 189 191 198 194 195 191 194 205 202 202 194 193 187 191 186 181 180 175 166 175 179 187 182 187 191 196 192 192 183 209 216 223 240 255 267 275 345 347 345 336 355 439 422
198 194 188 193 187 189 189 189 203 204 206 190 187 190 189 187 189 187 183 184 186 184 189 189 189 191 193 193 189 216 222 222 242 259 285 263 348 336 335 337 436 424 481 494
195 195 194 191 181 182 192 181 197 191 203 193 180 177 176 187 185 184 180 179 171 185 190 191 186 196 194 204 211 213 222 241 250 278 286 345 341 338 351 431 437 496 409 447
182 195 185 179 181 193 192 178 196 204 196 165 187 184 172 170 184 181 186 190 197 198 193 194 198 199 211 213 225 229 249 286 293 293 350 342 322 419 453 447 402 386 384 417
185 184 181 184 192 177 185 180 196 196 205 186 166 178 178 175 179 177 178 193 196 197 198 202 203 210 210 229 252 253 255 279 293 314 346 321 434 497 423 410 421 439 409 378
178 178 180 186 190 189 174 200 206 208 198 183 168 184 183 184 175 181 190 202 198 201 206 208 217 219 246 242 243 250 290 275 354 347 326 452 431 423 445 493 422 400 373 360
199 207 219 215 193 198 191 193 203 196 188 187 181 178 175 180 188 200 205 203 211 213 206 213 230 240 231 247 247 292 302 314 340 328 447 430 403 525 464 404 379 360 356 348
218 224 215 180 189 196 200 203 211 187 160 171 184 187 192 203 205 202 195 204 212 215 219 233 239 231 251 242 283 311 307 350 318 434 423 397 384 378 382 371 365 354 348 336
221 218 216 198 210 199 201 209 189 187 194 189 188 188 202 203 199 195 212 213 213 228 236 227 235 249 239 285 293 304 363 322 424 424 397 376 376 386 377 359 356 348 336 333
202 207 204 201 204 183 209 192 189 185 187 187 192 205 203 200 196 211 210 219 222 230 237 237 257 241 268 283 298 305 338 427 429 407 380 365 369 371 364 358 346 338 329 330
204 205 196 209 207 190 189 192 191 199 199 197 200 202 202 206 205 213 222 215 231 230 227 250 241 250 280 295 305 342 448 450 424 388 364 349 361 373 359 350 337 331 327 320

GFSCGP_2pvu_pres_015.txt.gz
Presure
194 227 224 224 226 170 219 218 225 257 239 241 234 234 231 232 228 222 222 228 130 131 148 224 231 232 211 228 216 201 213 203 202 209 216 190 186 183 181 188 186 185 181 185
221 223 222 221 162 230 235 233 229 206 165 223 222 223 235 250 249 252 133 132 166 227 213 230 214 214 225 222 213 207 203 206 204 217 193 183 179 184 183 195 191 187 192 193
178 234 234 136 189 232 233 234 236 234 183 157 244 255 243 240 232 133 138 201 220 214 210 218 227 224 222 209 203 199 204 206 209 197 186 181 182 185 194 191 193 196 192 197
227 227 227 226 226 223 224 215 140 147 150 213 215 218 213 202 176 211 221 205 216 216 220 214 225 200 203 199 195 202 203 195 187 182 176 184 190 197 192 197 143 191 184 198
221 138 220 218 186 137 219 225 223 225 227 221 215 218 217 210 222 213 217 212 212 205 209 203 191 199 199 197 200 202 194 191 181 189 185 195 192 195 195 145 191 183 200 195
229 228 233 236 160 215 233 233 233 231 228 225 228 226 231 233 220 207 213 213 211 220 201 197 193 191 190 196 194 190 193 190 176 191 186 190 192 191 147 188 198 194 201 201
218 234 210 244 240 239 242 247 253 255 236 229 231 246 250 252 253 235 212 206 202 198 199 197 190 190 188 186 192 191 184 193 191 197 197 193 190 193 152 194 197 197 195 198
239 242 244 247 244 241 153 228 236 236 234 236 241 227 227 234 244 240 236 216 205 184 192 191 192 187 187 190 183 190 192 184 193 187 186 189 191 183 120 197 198 195 207 194
231 220 214 216 218 217 212 208 207 208 198 204 201 199 198 198 199 213 212 195 190 191 193 190 182 185 183 194 196 190 191 190 188 185 189 116 99 195 191 195 199 196 210 217
214 212 209 207 214 207 206 205 204 200 203 208 209 201 204 205 203 201 201 201 198 199 195 190 191 198 193 190 191 190 162 188 188 183 197 167 191 194 195 195 204 222 233 225
206 199 203 198 200 197 198 197 197 189 195 201 203 208 206 165 194 189 188 183 186 183 194 198 200 190 190 183 181 184 155 154 184 186 186 194 195 195 205 205 214 234 239 248
198 187 198 202 197 193 194 202 198 201 193 195 193 196 195 189 189 191 197 192 194 216 207 182 195 188 180 181 181 191 183 183 193 194 195 193 198 203 213 215 228 256 261 297
192 202 202 197 193 196 198 201 190 191 205 208 192 196 194 193 200 203 202 204 195 185 190 185 182 183 183 188 182 182 189 185 193 194 194 203 205 220 226 259 272 269 316 391
200 200 199 196 188 194 204 196 195 191 184 190 200 196 204 202 203 202 193 193 194 190 184 188 185 188 182 179 183 187 192 196 195 196 206 206 211 255 252 264 274 328 377 340
201 195 194 202 198 194 192 193 196 194 194 191 190 209 202 206 202 195 190 192 184 177 187 175 182 183 184 182 181 192 200 200 199 209 205 239 247 260 257 290 325 366 325 442
193 193 193 192 196 194 194 190 195 190 193 182 196 192 208 193 199 200 165 186 170 181 183 181 171 183 181 183 191 201 206 209 218 236 242 244 263 252 306 337 371 336 451 440
195 192 193 193 198 197 198 196 195 189 184 196 193 189 184 206 195 201 172 175 174 188 170 178 182 183 182 200 200 197 214 222 237 242 245 258 254 296 331 360 374 451 472 435
188 186 185 186 189 191 185 195 185 185 186 195 195 189 200 209 198 194 189 187 179 181 181 179 186 196 201 200 206 217 214 227 232 250 258 255 266 335 358 378 430 407 436 454
190 189 186 186 184 184 181 110 187 192 190 194 202 196 199 207 196 190 187 183 185 182 186 187 201 202 200 208 219 214 226 242 244 263 264 259 322 358 443 429 405 403 396 395
193 191 193 198 194 189 192 198 191 214 216 217 196 190 198 202 194 191 190 182 184 192 189 201 203 202 207 215 224 225 235 245 250 302 255 319 371 454 429 402 384 376 396 377
207 204 200 152 202 211 214 228 228 218 222 190 193 192 198 203 191 186 180 179 189 191 199 204 201 208 215 219 227 237 243 252 299 251 317 379 454 438 406 382 369 378 374 361
190 195 202 202 211 218 230 220 214 220 226 230 194 208 201 195 188 185 192 198 201 205 205 200 212 217 220 228 237 249 250 263 258 318 387 402 446 415 385 365 357 376 363 353
200 202 118 192 210 222 222 217 215 205 197 209 204 198 192 190 194 197 198 205 202 200 204 214 220 219 221 233 245 249 262 260 321 370 396 458 426 393 368 349 362 369 362 345
205 140 201 205 206 214 200 232 231 221 202 192 183 189 200 200 201 195 210 202 201 205 213 221 223 231 236 245 248 255 289 299 380 364 468 437 403 373 352 342 368 363 355 336
164 202 214 217 224 230 222 209 198 187 189 194 193 197 203 203 195 212 206 207 209 211 227 226 236 237 246 244 254 301 296 347 372 461 444 413 382 354 339 354 364 360 340 335
191 206 206 218 221 222 187 175 198 198 194 192 196 208 195 212 209 207 209 213 222 230 231 233 237 248 250 255 295 317 328 391 468 443 415 387 360 333 330 355 353 342 339 335

GFSCGP_2pvu_pres_018.txt.gz
Presure
228 173 226 227 166 227 227 226 226 226 231 234 240 238 240 249 253 248 240 238 231 231 228 190 135 136 213 211 205 219 226 211 227 216 209 198 203 202 203 206 205 178 182 183
228 229 224 222 224 224 222 221 222 179 224 223 228 229 161 238 217 173 231 231 243 227 237 242 233 220 216 216 206 207 206 228 213 205 199 193 198 203 205 191 186 183 185 188
217 217 215 214 200 208 214 216 216 226 234 235 235 234 135 197 226 236 238 216 224 209 213 210 218 218 203 203 206 224 207 205 199 198 194 202 200 195 195 193 185 196 197 201
215 231 230 152 154 153 234 207 224 227 226 223 206 230 206 216 225 217 213 214 222 221 214 223 208 209 215 218 208 206 186 194 194 199 203 195 196 195 191 197 193 199 195 199
226 227 227 224 223 224 220 220 220 141 142 222 222 226 224 221 210 215 217 220 220 229 221 211 210 209 211 200 195 197 193 194 195 184 195 182 194 193 193 199 196 195 194 197
185 202 184 215 216 211 219 213 194 169 231 232 234 238 232 226 226 219 212 212 220 218 218 216 215 208 199 198 200 194 196 191 190 185 188 195 191 194 188 190 188 191 92 187
125 182 216 223 236 245 244 240 247 247 253 271 262 246 243 241 244 239 244 249 239 218 210 207 208 201 202 191 191 186 192 191 189 194 195 190 185 187 159 190 192 196 196 205
218 256 245 246 245 242 238 230 227 226 224 219 218 213 214 214 212 211 212 220 222 223 225 220 204 189 188 186 192 187 189 189 203 191 180 185 195 185 192 189 195 204 196 195
229 232 219 224 224 211 215 214 213 211 210 207 202 204 206 209 211 208 205 207 205 204 202 200 200 194 184 182 182 198 206 192 184 183 189 188 185 182 189 194 196 202 207 213
217 211 215 205 210 209 202 201 201 203 201 201 200 201 200 204 205 205 203 198 197 193 185 189 193 193 200 207 194 188 187 187 192 194 189 184 183 188 195 202 203 204 207 227
205 205 215 204 204 190 198 197 197 189 194 207 207 203 201 200 197 197 199 199 202 206 212 211 208 206 197 196 192 183 190 181 187 179 190 187 184 195 202 204 204 206 225 256
191 203 201 194 188 194 203 203 197 199 200 195 207 208 200 203 200 204 208 208 209 210 207 203 202 201 190 177 184 195 190 186 182 185 187 186 194 204 203 205 222 231 253 265
196 202 201 193 199 199 198 194 195 190 208 201 197 195 196 196 196 200 195 206 204 203 208 203 198 176 175 179 181 190 183 188 181 190 186 203 206 201 207 229 246 254 272 262
197 195 200 199 197 198 197 201 198 195 193 193 194 194 196 194 191 193 199 195 188 209 202 201 199 194 193 184 187 186 182 181 185 189 201 207 201 214 228 249 253 273 268 283
195 192 195 196 195 192 191 193 196 197 195 196 196 196 192 189 188 198 192 185 197 209 202 199 198 193 194 189 182 182 185 188 194 201 206 202 218 230 254 256 266 271 338 379
197 196 198 198 195 194 194 196 196 192 196 195 184 195 187 196 190 188 194 192 194 196 205 200 193 193 183 182 182 184 193 196 195 206 208 223 240 253 257 279 267 394 373 469
193 195 187 187 190 194 190 184 185 187 184 189 190 190 187 191 195 223 231 194 194 195 202 202 195 187 181 181 190 195 204 205 205 213 234 238 250 260 273 265 402 428 466 427
194 194 195 196 193 190 189 190 188 195 201 205 209 220 229 226 223 224 189 206 196 205 202 195 190 189 184 191 197 206 209 203 221 234 236 255 262 274 266 398 489 464 432 401
195 197 196 197 200 206 207 205 202 199 201 207 218 224 223 225 223 219 213 201 204 195 190 186 189 192 196 197 214 209 212 231 243 234 254 257 254 273 376 492 468 432 403 378
208 206 209 207 206 198 194 194 198 206 204 207 212 215 228 220 203 196 210 200 189 182 190 199 205 199 200 207 207 221 220 240 235 253 258 259 271 292 491 473 437 405 376 354
193 203 200 200 195 192 204 201 202 202 208 208 216 229 224 221 205 201 194 187 189 192 193 204 202 208 194 224 216 220 236 245 258 265 259 277 287 489 473 448 411 377 352 359
200 195 203 205 205 204 143 172 197 207 211 216 230 228 204 198 191 187 191 191 191 205 199 202 201 217 221 216 223 239 253 256 255 259 245 314 401 472 450 414 379 353 337 363
197 199 195 99 90 208 201 205 202 218 211 224 223 196 188 179 189 199 193 194 201 207 200 214 219 224 215 226 236 251 245 243 262 247 310 351 467 440 390 374 355 341 336 358
189 196 195 196 198 209 209 200 216 218 212 201 191 188 185 190 197 193 203 204 204 211 216 221 224 216 231 231 245 235 250 258 251 311 389 460 446 400 372 359 346 338 351 360
138 193 198 198 151 207 203 209 187 198 204 191 198 191 183 197 205 201 203 212 211 216 216 220 225 227 233 242 252 248 255 270 311 333 398 444 417 380 367 357 347 343 351 357
169 118 215 177 210 199 187 189 197 195 191 203 197 195 201 204 201 211 212 215 214 218 226 229 231 232 239 257 250 254 295 311 328 388 432 425 386 364 371 360 350 350 352 359

GFSCGP_2pvu_pres_021.txt.gz
Presure
222 218 218 221 227 169 226 227 231 235 131 231 233 236 240 236 217 209 224 245 232 274 244 234 234 254 226 230 251 214 215 204 206 206 210 205 219 212 228 190 190 194 203 199
156 225 227 225 221 225 230 232 228 226 223 221 219 225 230 229 224 222 229 231 234 231 225 222 216 229 217 216 208 209 212 203 211 203 198 195 213 201 184 191 196 189 193 191
153 221 211 222 225 224 223 222 223 224 225 222 217 215 213 230 230 227 232 238 238 245 230 229 213 213 214 212 213 209 215 210 205 201 200 198 185 188 192 195 192 188 191 202
147 218 216 216 213 214 212 212 214 213 209 159 232 227 222 229 203 233 225 220 221 220 220 218 219 219 222 218 219 218 206 204 200 202 194 192 193 192 197 194 190 201 197 183
124 214 214 216 229 209 217 220 227 231 233 225 225 224 229 218 220 227 227 228 227 223 222 217 217 222 233 229 226 211 210 209 209 216 189 192 197 193 199 197 206 195 197 203
124 216 230 233 230 229 226 224 222 222 217 229 243 238 226 230 230 231 237 244 246 246 249 254 259 259 246 232 223 222 214 201 193 196 194 189 194 195 195 194 192 198 192 192
222 219 218 218 204 202 216 224 241 268 246 242 217 253 247 240 233 125 224 222 217 212 211 204 208 207 209 204 200 195 196 193 191 190 193 200 206 200 188 197 193 188 186 192
212 211 214 226 209 242 261 247 239 233 226 222 218 214 210 210 208 180 204 203 201 201 201 202 202 195 188 188 191 193 194 198 203 213 205 197 188 181 195 186 184 189 187 193
222 247 248 244 241 234 227 220 217 219 210 206 206 205 200 199 202 195 191 203 202 199 193 189 192 192 197 201 203 204 202 199 194 196 178 180 184 192 186 184 192 185 194 200
215 237 228 225 227 208 212 207 202 202 201 201 204 195 193 209 206 201 199 197 190 191 198 203 205 206 206 207 206 202 200 199 186 174 182 191 193 187 183 187 192 194 205 210
218 217 216 210 204 206 201 191 196 201 199 199 191 198 198 201 202 198 193 192 199 196 192 198 194 190 187 209 204 204 201 202 198 199 194 191 186 183 192 197 197 207 208 214
212 200 208 203 202 197 189 199 198 200 204 203 197 206 201 196 198 199 200 198 194 188 194 199 193 190 186 205 212 208 205 201 193 194 194 184 192 194 196 204 204 218 233 251
197 193 195 202 202 197 195 201 203 199 196 206 205 200 200 200 201 203 202 197 185 192 190 189 191 194 199 192 199 195 210 205 202 189 193 194 196 198 203 217 225 233 266 271
197 198 188 195 194 193 196 199 198 192 194 197 197 200 196 192 187 186 189 188 183 207 212 225 230 230 192 197 203 207 201 194 189 191 196 200 204 207 222 227 247 272 263 270
188 190 195 197 195 193 192 195 197 195 196 194 187 183 188 189 196 211 219 229 230 229 225 218 214 211 205 205 199 192 190 191 195 204 208 206 226 226 229 242 254 260 266 276
193 187 183 186 195 196 194 189 185 187 186 189 190 192 191 206 211 205 217 219 220 221 217 216 205 195 204 198 184 191 193 197 205 204 218 227 223 231 241 257 255 260 272 431
191 193 192 191 191 194 195 196 195 195 201 207 203 202 203 204 208 210 226 229 216 224 218 210 208 200 190 194 194 194 204 201 225 222 221 228 229 238 257 263 261 292 429 484
187 186 188 193 197 198 204 207 211 205 198 199 194 198 205 202 207 211 224 239 217 206 198 198 189 195 200 195 202 205 212 220 216 229 233 230 236 256 269 260 276 403 473 461
188 195 201 206 206 201 194 199 203 199 194 198 205 206 201 201 207 212 228 219 203 197 179 188 192 196 202 203 212 213 215 214 225 232 240 242 257 268 256 297 268 423 459 412
198 199 195 198 198 194 200 198 201 200 197 199 198 203 197 211 215 221 208 202 192 186 187 189 202 198 207 205 216 212 216 227 226 238 251 263 254 237 304 399 424 450 426 382
195 190 196 203 205 201 199 135 201 200 196 206 203 207 206 213 213 204 200 179 195 198 188 204 209 203 202 213 212 216 228 226 237 250 269 253 253 312 339 430 439 438 395 369
200 200 192 193 202 192 150 154 195 197 200 208 208 204 212 191 192 200 194 200 193 193 209 203 200 205 214 213 217 224 230 238 250 258 247 242 273 327 431 435 433 403 374 366
187 195 198 197 180 198 198 192 191 122 205 206 206 205 178 199 197 198 196 189 200 208 200 200 208 218 217 215 224 226 242 249 260 222 239 319 317 428 441 440 412 380 365 364
192 197 188 202 164 202 190 195 198 202 203 206 216 209 215 194 197 188 199 199 209 200 204 213 213 217 215 224 224 239 248 257 230 250 299 298 333 437 438 424 395 368 353 365
188 193 199 194 198 189 195 200 203 203 218 191 207 208 191 189 193 200 195 210 205 205 209 213 215 221 224 224 239 252 255 232 251 294 318 388 440 444 417 410 378 361 353 370
100 200 86 192 194 196 198 199 201 218 225 207 203 202 186 202 195 203 211 202 216 207 212 215 220 223 227 240 254 243 247 288 303 297 339 442 434 425 414 396 368 355 342 375

GFSCGP_2pvu_pres_024.txt.gz
Presure
231 174 210 225 223 223 234 238 241 235 228 223 221 216 226 202 207 209 209 201 202 207 222 209 212 211 227 229 224 214 223 180 223 237 236 210 204 204 213 205 200 203 201 194
206 226 133 147 224 222 221 222 221 222 227 230 234 232 230 235 237 236 235 228 229 229 232 224 223 231 219 227 249 242 226 239 208 207 208 211 214 214 203 204 204 199 186 185
223 198 221 166 143 216 220 224 226 226 230 228 226 226 222 222 221 218 219 220 224 177 219 218 229 240 227 222 208 212 216 213 208 214 216 215 203 202 202 197 194 188 191 185
222 218 220 123 153 220 217 222 223 221 219 217 214 212 213 196 132 201 225 228 134 236 233 224 215 220 222 183 216 216 216 217 224 221 217 215 206 204 202 201 192 187 187 194
217 218 215 116 118 223 220 215 214 212 207 207 132 191 215 219 225 226 221 221 220 224 230 225 245 246 249 238 229 223 215 216 222 210 206 200 193 188 188 191 195 202 209 200
217 220 112 152 121 217 216 217 221 228 225 224 222 222 221 224 228 230 239 248 241 235 229 182 203 208 208 207 208 203 197 193 191 191 195 198 202 204 206 205 201 193 183 191
216 109 159 211 221 230 228 223 219 218 214 233 243 256 259 253 245 236 227 213 209 209 206 202 203 206 202 193 201 208 214 219 218 215 212 211 209 208 208 207 210 210 212 206
110 221 227 219 217 214 215 213 244 246 238 230 225 219 213 212 209 207 203 201 200 196 206 206 204 202 202 200 203 201 199 200 200 198 211 215 216 213 210 207 205 203 199 195
220 218 218 215 217 236 249 239 228 221 219 216 211 208 206 199 199 192 208 208 207 201 200 197 194 193 194 191 198 202 191 198 195 201 196 198 201 195 206 204 203 194 188 188
210 214 217 240 241 233 225 220 213 212 208 204 201 204 206 197 192 201 197 201 194 192 192 198 198 198 191 191 189 194 189 192 194 203 195 194 202 203 194 190 186 186 194 195
217 215 229 224 229 220 209 207 204 194 198 200 204 203 208 205 200 199 195 195 198 202 201 200 195 192 188 185 218 219 225 229 225 192 200 198 193 188 188 188 186 204 215 232
224 220 212 211 202 208 203 198 197 194 204 204 199 200 197 195 191 197 201 195 192 188 190 216 223 231 229 227 227 223 196 216 207 204 201 189 190 188 197 203 214 213 236 256
208 205 198 193 202 203 204 204 199 201 202 201 195 196 195 199 198 191 187 194 195 215 219 217 227 226 236 228 231 212 203 205 198 191 194 191 196 207 214 215 231 245 248 259
197 197 199 197 196 196 198 199 198 196 198 193 189 188 189 192 194 200 206 207 207 213 212 225 245 241 228 222 212 203 187 189 194 194 200 205 214 215 229 230 248 250 249 264
189 197 187 188 196 189 185 194 195 194 193 194 197 198 196 203 204 202 198 201 208 210 211 221 234 234 220 205 189 189 183 188 198 207 219 214 218 223 217 240 242 245 244 241
195 192 194 191 189 192 192 194 192 191 196 199 201 208 206 201 198 197 202 210 202 201 225 217 243 206 201 190 190 184 184 193 208 203 215 219 218 215 227 244 251 255 248 290
189 189 191 194 189 187 191 195 198 202 205 203 205 201 198 196 196 198 201 204 204 217 212 204 203 200 197 199 194 208 203 212 203 211 220 222 222 225 245 253 239 244 276 294
188 192 186 190 190 189 203 207 206 201 197 206 199 194 193 192 203 211 210 204 211 208 192 193 195 195 189 187 210 201 215 202 211 214 219 220 224 240 251 239 232 278 308 334
189 192 192 190 192 197 196 196 197 201 207 199 190 192 195 196 197 203 210 208 213 180 196 196 198 191 189 203 204 218 205 204 216 221 212 234 244 251 246 229 282 281 327 468
190 191 195 199 195 192 192 195 191 209 185 183 190 194 199 199 198 203 212 219 179 209 192 188 200 190 206 207 211 202 209 217 216 220 237 246 253 251 228 281 280 332 412 452
194 194 194 198 194 152 194 196 202 190 182 199 198 191 201 196 200 204 219 201 203 208 182 200 192 202 206 205 205 212 216 221 224 238 227 258 210 235 259 332 333 393 448 437
197 197 196 189 193 191 197 203 191 189 195 197 161 191 198 197 202 192 207 205 201 193 197 199 203 203 206 201 212 216 222 225 239 247 258 227 254 246 261 338 454 446 434 426
204 201 195 195 199 198 192 193 188 192 193 190 190 198 199 205 190 213 222 189 199 188 200 202 204 201 210 213 218 223 230 237 210 240 244 254 250 297 317 319 440 443 429 417
197 194 196 197 197 191 190 193 194 189 188 191 196 205 199 196 209 220 193 195 195 201 203 209 202 215 213 218 225 232 237 249 244 236 251 285 292 292 318 336 434 423 425 407
190 116 158 88 152 190 189 188 194 195 194 200 210 210 218 211 206 203 191 193 201 208 210 208 218 217 218 227 235 246 249 239 235 254 290 262 294 322 327 416 411 433 420 394
105 175 168 177 189 187 189 193 199 199 203 209 208 224 228 230 194 197 198 204 212 211 211 221 224 224 227 240 252 248 241 244 253 298 277 295 320 343 413 424 417 431 412 377

GFSCGP_2pvu_pres_030.txt.gz
Presure
135 137 141 230 131 230 148 141 229 229 231 231 236 232 223 219 216 214 210 207 207 205 204 203 205 208 205 204 206 206 236 227 224 247 219 195 219 234 214 205 217 221 225 222
230 229 224 224 233 228 228 231 226 227 139 225 221 218 217 216 214 213 214 217 213 213 213 214 216 221 233 223 214 217 219 217 234 229 224 220 213 215 241 221 198 197 196 194
226 234 235 238 236 231 227 223 222 224 224 211 197 131 222 225 228 228 226 223 223 223 230 230 221 213 214 215 213 220 223 215 232 234 229 225 210 198 194 198 200 193 198 198
228 213 227 219 226 224 225 226 230 231 225 227 187 115 141 228 228 225 222 220 217 215 214 212 208 210 219 223 236 228 220 215 206 204 202 201 202 202 193 193 195 186 192 192
231 228 229 225 222 224 225 222 218 216 215 211 111 116 117 219 219 214 212 208 206 209 215 214 216 236 226 218 210 203 201 201 201 198 197 196 196 196 196 200 194 191 200 236
228 218 217 217 219 220 218 210 208 206 177 169 118 118 215 205 203 208 214 216 226 246 236 225 217 207 201 201 198 202 207 196 198 199 197 202 202 200 208 211 244 239 231 221
217 219 219 217 149 199 211 214 216 212 116 129 208 205 211 218 214 239 236 223 218 208 207 200 200 200 208 203 198 202 192 193 201 195 219 232 241 237 230 244 244 213 203 200
221 220 218 211 214 214 211 210 211 209 203 213 219 213 206 233 221 217 207 205 199 197 201 197 208 195 199 200 190 196 201 205 217 224 229 243 248 247 234 212 203 201 194 197
214 216 216 212 167 212 210 207 121 215 214 210 207 227 216 214 205 199 196 214 198 207 207 198 201 197 193 196 193 215 219 214 211 214 218 221 230 207 202 195 194 195 194 192
214 212 208 220 214 216 213 208 205 215 212 156 218 213 207 201 197 193 190 204 203 199 198 198 193 201 208 204 204 205 203 199 201 202 209 202 203 196 196 193 194 187 188 184
156 221 216 217 212 212 243 206 228 195 212 208 204 202 195 195 203 201 204 197 192 196 191 198 209 202 199 201 206 204 214 215 215 210 207 186 191 194 190 185 188 185 187 221
194 209 210 211 214 239 225 222 211 207 205 202 199 193 190 199 196 195 197 197 191 197 207 207 201 201 196 199 194 212 217 221 210 203 202 203 190 187 191 200 189 208 215 218
207 208 212 246 228 217 213 208 204 204 200 198 201 199 190 191 195 197 195 196 206 207 198 200 192 193 192 207 201 209 214 211 195 210 203 199 195 198 184 210 212 222 226 235
204 224 217 213 211 201 202 199 198 199 197 195 198 199 196 196 200 199 207 205 205 199 197 191 186 193 198 201 209 203 197 211 222 202 192 194 197 202 212 207 213 227 226 240
215 214 206 203 200 197 198 196 192 198 196 193 187 184 192 195 200 206 199 204 201 195 189 196 197 187 191 205 204 193 211 225 204 194 202 195 187 204 208 221 227 228 243 223
210 200 194 196 194 194 195 194 187 190 189 191 191 200 209 211 191 203 205 211 195 178 195 197 190 187 200 202 199 216 226 200 197 197 198 200 205 209 215 226 227 248 257 261
198 200 201 199 194 194 193 195 194 196 194 191 194 197 200 188 206 195 203 193 191 190 194 192 189 196 202 204 204 223 202 199 195 194 202 205 212 215 227 226 246 258 247 260
203 198 198 200 197 192 197 195 191 190 189 197 197 194 198 196 202 198 196 194 193 192 189 195 198 197 202 208 219 211 202 200 198 200 207 213 214 226 229 243 258 242 240 257
198 196 199 199 195 190 185 190 195 195 192 196 191 199 199 191 203 185 193 121 191 182 192 193 200 196 208 219 223 195 196 203 198 203 218 217 222 228 237 220 252 235 242 267
197 196 192 193 195 193 192 194 193 195 195 190 198 197 200 203 198 187 190 182 193 192 195 197 192 205 220 226 193 201 203 204 210 220 225 223 222 238 252 246 239 230 268 280
196 194 194 194 192 194 197 198 199 195 195 192 191 200 198 193 186 189 191 190 193 197 191 197 209 224 211 195 200 202 205 216 216 228 224 225 235 254 227 247 223 260 305 287
200 200 202 203 203 204 204 200 199 201 201 201 202 195 203 181 186 194 190 194 195 193 200 215 228 200 194 203 203 209 214 221 226 224 232 238 249 199 244 249 260 298 286 270
202 207 209 209 208 145 197 85 213 215 212 209 209 192 185 191 196 191 194 195 194 207 229 199 200 199 203 205 207 216 222 225 230 229 243 268 251 239 253 249 262 284 266 333
200 195 91 199 196 155 202 205 201 190 194 194 197 197 194 192 190 192 193 202 220 201 198 200 203 203 209 212 221 224 226 235 236 258 253 253 237 234 253 254 279 311 361 332
143 194 198 193 198 205 168 193 197 198 203 196 199 190 191 196 194 202 208 226 199 207 202 202 209 208 217 227 228 227 241 247 254 223 244 250 252 258 291 288 269 310 331 335
191 194 199 198 134 197 191 185 203 199 200 194 190 197 199 204 202 211 203 200 206 204 205 217 214 224 228 230 240 244 241 255 197 250 241 241 266 278 276 281 346 325 344 403

GFSCGP_2pvu_pres_033.txt.gz
Presure
237 234 149 148 132 141 229 231 139 130 226 210 134 142 227 221 143 219 230 235 217 218 209 212 209 199 202 199 202 203 203 207 208 219 229 211 205 205 221 217 238 234 219 216
134 204 230 228 237 216 135 139 227 182 161 229 226 223 236 234 232 223 221 216 218 215 215 210 209 199 208 203 208 210 222 231 211 208 210 223 226 222 227 220 213 204 199 200
234 239 232 228 233 231 226 223 220 220 221 219 222 219 222 219 218 174 213 119 207 205 204 205 208 209 213 230 231 217 210 209 225 234 226 222 217 210 203 200 200 201 199 199
242 231 227 220 215 232 223 221 224 221 221 215 218 215 215 217 218 216 117 115 136 218 222 226 230 221 214 207 206 230 220 226 218 217 207 206 211 206 201 203 205 204 207 210
237 217 219 222 230 231 223 221 220 221 223 225 226 223 220 231 123 136 117 155 219 221 213 210 204 208 214 233 226 223 216 208 200 209 193 200 204 203 205 214 241 249 255 255
220 195 166 230 219 221 223 216 220 219 218 221 212 205 209 211 211 156 213 211 207 205 212 213 228 229 222 217 210 200 203 202 194 204 199 200 217 216 215 223 224 225 226 228
221 222 221 227 219 218 216 216 219 216 211 205 206 208 213 169 207 206 205 215 216 225 229 222 215 210 205 200 207 195 200 197 204 214 215 214 214 213 212 208 206 212 203 201
228 228 215 212 209 208 209 209 206 207 210 212 207 211 205 200 205 217 215 228 218 216 211 206 200 217 211 198 203 194 210 203 204 205 205 213 221 223 213 205 199 206 194 197
217 215 215 209 210 210 211 210 211 209 206 206 163 216 220 214 209 227 216 214 209 198 219 201 213 195 201 196 211 201 201 202 203 195 207 217 223 216 217 209 205 211 186 207
213 207 208 211 210 209 209 210 207 204 213 214 208 206 214 219 218 210 208 203 189 203 207 199 203 197 200 209 201 200 193 194 199 207 205 213 207 206 212 209 216 205 198 192
210 207 207 208 206 204 206 207 210 217 208 203 214 217 214 210 205 199 198 214 193 202 197 201 197 199 206 195 196 191 191 192 199 207 202 203 213 212 219 215 202 196 194 201
211 208 207 211 134 217 214 213 204 204 224 214 208 205 204 200 200 197 194 204 194 198 200 200 204 205 194 197 190 192 193 193 185 204 203 207 219 227 216 204 196 196 194 192
208 216 217 215 214 209 205 204 227 216 211 203 203 197 203 197 200 201 191 195 198 200 203 209 201 208 197 189 190 193 194 190 197 200 208 215 222 217 202 199 200 193 197 208
215 215 212 204 208 215 228 221 214 209 206 200 202 196 204 196 193 196 192 195 202 207 205 202 209 201 185 183 190 195 190 196 196 202 208 225 230 205 201 203 208 209 215 230
204 208 208 254 230 220 211 212 206 202 202 200 194 200 200 190 189 194 201 206 212 206 196 206 195 192 193 185 190 199 195 198 199 205 219 232 203 197 207 209 211 219 227 234
208 195 229 209 214 208 207 201 199 199 197 196 194 189 193 193 189 189 196 195 192 205 201 198 193 191 191 190 185 187 193 197 205 214 230 203 199 206 206 214 218 225 232 237
206 208 213 212 210 199 202 204 198 198 199 192 192 192 191 188 196 198 197 198 196 200 207 189 188 188 191 185 193 193 194 202 216 231 201 195 202 208 204 217 227 235 242 254
208 211 213 210 201 200 206 201 197 196 196 197 189 190 186 190 192 192 193 199 200 205 193 186 187 187 191 192 193 198 202 223 213 200 203 204 207 208 213 230 235 241 253 252
199 199 204 203 203 201 197 200 197 192 194 188 190 192 195 198 198 197 196 201 206 189 183 188 192 189 191 191 198 203 227 197 200 199 205 203 206 218 233 234 240 261 247 260
197 199 198 197 194 193 195 195 193 193 195 191 195 199 200 201 200 207 211 211 199 179 186 191 190 189 191 196 204 227 194 203 203 201 212 214 224 235 237 245 260 247 238 237
197 198 198 194 195 197 196 196 194 193 158 194 201 201 205 208 209 217 218 197 182 193 189 190 187 190 199 202 222 200 204 201 205 210 216 233 230 242 244 252 236 245 257 251
202 199 196 197 197 199 197 199 135 173 199 202 204 206 202 207 189 190 193 190 191 190 187 190 196 194 200 220 201 200 200 206 212 222 236 235 237 241 256 242 237 251 258 262
198 198 198 200 131 189 201 203 206 200 119 204 203 203 199 189 185 194 196 189 191 186 193 193 194 200 220 204 201 202 210 217 228 239 238 238 236 246 245 257 249 257 271 288
196 198 161 203 204 211 214 183 198 190 191 198 197 187 185 179 197 195 198 187 197 199 205 203 211 234 204 204 204 216 215 235 237 237 253 242 242 245 252 269 264 267 262 264
185 204 200 198 207 197 192 195 193 199 190 199 194 185 197 203 204 199 191 200 203 204 210 224 209 207 208 213 216 217 235 239 241 253 244 268 242 251 246 253 264 279 301 321
200 195 195 194 196 193 198 198 196 199 187 195 202 202 204 202 194 198 203 205 208 220 230 208 211 214 212 220 226 241 249 251 245 270 259 261 261 245 254 272 275 318 330 338

GFSCGP_2pvu_pres_039.txt.gz
Presure
261 240 103 226 240 232 137 234 117 238 126 140 129 125 146 236 117 128 143 134 134 214 221 223 222 224 214 205 209 117 115 215 224 217 230 230 212 203 193 189 185 193 195 197
263 241 235 227 231 235 229 232 226 234 166 227 227 234 129 125 196 198 201 178 220 165 231 159 243 212 225 218 205 111 112 224 212 202 200 194 192 198 195 204 209 210 224 226
267 246 235 232 225 236 235 233 225 229 237 227 226 225 227 148 205 135 219 214 191 203 219 217 216 202 213 218 225 213 213 200 202 199 201 200 197 201 205 227 218 222 209 208
266 256 239 236 235 243 226 153 232 236 222 221 175 224 220 221 221 223 228 224 222 226 220 222 219 215 209 202 133 184 195 197 200 200 201 200 202 227 222 222 210 198 193 215
236 253 244 240 236 233 230 228 223 227 217 222 227 225 219 222 223 224 217 217 216 222 221 228 220 218 217 209 208 210 213 215 213 228 224 210 233 223 204 197 193 221 205 207
233 255 238 241 234 230 225 223 230 226 215 219 216 216 214 226 222 214 215 217 215 217 211 214 219 217 216 219 217 213 206 205 217 230 229 214 201 202 205 212 204 202 201 199
235 241 249 236 236 231 223 222 228 224 226 221 225 226 220 219 220 224 219 229 228 213 205 208 209 207 218 206 212 228 225 216 206 199 199 200 203 214 214 207 206 204 201 201
225 221 225 236 241 220 212 214 218 222 224 224 223 227 219 215 214 202 210 207 212 209 212 201 208 217 229 223 217 213 199 191 203 201 209 201 220 218 207 201 196 195 195 194
226 213 228 236 221 221 221 217 209 212 217 217 212 221 212 206 206 202 202 205 210 204 206 216 228 219 212 210 206 193 203 197 195 202 222 217 221 215 199 199 198 196 194 199
219 222 232 224 222 218 217 218 225 214 213 212 213 203 205 212 213 210 209 205 204 215 222 217 212 203 201 200 199 197 198 201 208 219 211 212 217 199 198 195 191 193 192 197
215 222 226 229 225 221 222 216 212 210 210 208 210 206 208 210 209 207 206 218 229 215 211 207 199 201 199 200 198 198 209 216 215 207 203 203 199 194 192 189 188 190 198 199
214 214 215 207 209 217 210 207 213 210 207 206 208 207 210 207 207 215 216 219 216 211 202 203 200 201 194 194 193 203 202 202 200 203 206 208 195 191 188 181 192 195 195 193
217 207 209 208 208 210 211 209 207 206 206 209 208 208 207 207 214 226 224 208 206 204 201 201 199 193 192 192 192 195 200 202 202 204 203 200 191 189 185 195 194 194 192 206
251 225 217 214 215 207 206 210 208 207 208 206 215 216 213 209 226 210 209 206 203 198 197 196 196 195 186 188 194 200 195 197 204 209 210 194 192 184 193 191 194 194 207 211
212 208 220 213 208 209 207 203 205 210 219 214 217 209 204 227 219 205 205 201 204 198 206 195 188 193 197 201 203 207 209 214 213 203 195 192 190 193 193 196 199 208 220 230
219 212 209 207 208 207 213 220 222 215 214 205 210 223 233 214 200 195 198 204 193 195 190 190 193 197 201 196 208 214 206 193 194 191 187 197 199 194 196 205 213 220 235 209
219 221 205 208 220 217 213 209 208 207 209 221 237 217 206 207 203 192 190 198 200 194 194 198 199 204 207 210 202 191 188 187 188 195 199 201 201 200 208 213 220 230 205 222
212 208 211 220 205 205 205 208 198 211 228 232 212 208 204 196 197 198 196 193 194 195 196 200 204 207 208 197 193 193 197 192 198 204 197 204 205 204 210 224 225 206 224 230
210 218 216 206 205 203 201 198 208 199 206 203 206 198 197 197 108 197 199 199 199 201 204 191 193 196 202 195 186 187 196 204 200 204 202 209 210 216 239 216 215 224 241 247
209 219 207 206 202 203 200 205 216 196 195 198 199 195 199 199 198 198 197 201 203 198 188 197 205 197 187 188 202 197 200 202 197 207 208 212 238 228 211 216 229 240 254 254
209 208 206 201 202 204 197 209 206 197 200 199 198 197 196 187 200 202 200 207 189 195 194 201 191 189 191 193 194 200 193 200 205 205 212 239 215 213 220 236 238 257 248 263
213 201 207 199 204 200 193 199 204 201 198 200 198 197 197 197 200 204 210 189 192 194 199 193 190 184 196 195 198 191 204 206 209 228 235 211 215 230 240 243 258 266 264 254
213 212 207 205 204 166 190 112 197 199 202 202 198 196 199 199 200 192 197 198 190 195 195 190 181 193 196 195 206 203 209 215 242 217 214 223 234 242 250 265 268 258 261 273
203 216 210 208 204 198 186 192 193 198 201 201 198 199 196 201 201 193 189 191 193 185 183 189 193 196 203 203 205 213 216 231 217 217 232 234 247 258 262 277 252 260 272 285
213 207 213 211 207 199 199 198 197 199 197 198 201 198 201 200 194 183 197 193 180 184 198 200 196 203 201 211 212 221 232 217 226 233 238 254 263 263 277 252 264 267 375 420
211 206 207 213 209 206 201 200 200 200 198 195 198 201 204 191 190 198 190 192 193 200 195 204 200 206 213 213 223 234 217 229 233 244 261 249 265 275 255 262 268 398 387 373

GFSCGP_2pvu_pres_042.txt.gz
Presure
257 250 259 238 241 229 221 236 119 159 128 121 139 116 219 130 247 119 130 125 174 139 126 124 128 125 132 135 134 216 216 211 197 211 216 190 200 203 205 198 200 196 207 198
260 254 254 241 227 237 233 206 151 129 205 191 139 213 120 156 167 124 124 143 228 169 211 213 196 133 126 180 199 212 228 221 223 213 206 209 207 203 211 215 207 197 202 204
242 238 251 240 231 232 235 225 226 226 226 171 205 227 125 196 143 142 191 229 231 211 224 181 203 217 217 209 214 216 206 217 211 212 202 194 198 208 199 198 194 195 198 196
271 230 252 239 236 224 237 221 222 217 218 221 221 227 218 226 230 228 221 220 130 138 144 226 200 219 212 215 210 214 206 203 213 217 213 207 200 197 200 201 199 199 212 231
246 252 259 249 242 236 230 224 217 220 217 226 237 222 219 221 219 217 139 219 218 218 214 212 225 208 213 214 212 210 219 213 212 206 206 205 204 208 238 233 245 220 205 201
213 255 248 251 250 238 230 230 217 219 225 226 221 215 226 230 218 181 215 208 216 215 216 211 213 220 219 216 218 220 212 216 214 219 218 212 217 229 218 204 204 200 197 202
229 240 249 244 246 241 219 231 217 216 224 236 224 222 222 211 208 212 217 218 214 213 214 221 238 226 218 213 209 211 206 210 210 227 229 215 199 195 202 195 195 200 207 213
230 234 227 230 240 232 233 226 220 225 230 235 233 239 221 220 220 219 229 226 222 221 221 217 214 204 197 211 227 218 228 220 214 206 196 197 196 194 195 205 219 205 205 215
222 230 235 225 227 234 242 229 212 211 219 229 227 214 222 224 222 225 226 225 209 201 200 201 209 211 218 215 219 214 205 202 199 198 194 196 200 212 214 203 205 209 209 203
226 219 242 223 237 246 225 219 216 219 219 217 215 210 215 211 213 211 210 212 216 210 211 210 219 217 221 206 207 203 199 202 194 195 191 206 206 199 201 203 203 210 214 214
227 216 234 238 230 239 211 218 219 216 215 221 216 210 207 208 204 204 206 203 207 207 211 217 229 218 211 205 203 201 195 196 186 192 190 193 198 195 195 214 216 217 210 202
278 219 215 229 213 212 215 217 214 214 213 212 214 211 211 209 210 205 207 206 209 204 217 225 215 206 202 200 202 199 193 193 187 187 193 203 211 212 217 210 204 198 194 195
257 253 226 221 217 214 200 211 215 211 208 212 209 213 206 209 209 206 204 209 211 234 223 203 202 195 194 193 194 197 193 194 199 205 209 206 210 202 194 192 185 193 193 203
254 239 249 224 223 210 209 212 215 211 213 212 212 213 211 213 215 211 208 204 228 218 210 205 198 193 193 196 189 184 193 195 199 202 205 197 185 192 190 194 194 202 206 206
227 246 242 247 256 214 247 206 209 213 211 207 213 215 217 207 205 203 225 229 227 211 197 194 199 193 191 190 189 190 196 202 206 203 196 195 196 191 192 201 207 204 206 211
273 262 197 215 213 206 208 214 213 207 212 221 221 207 210 202 209 211 231 222 206 193 192 195 195 190 191 194 199 210 204 199 205 200 201 199 194 205 202 203 201 211 212 241
257 249 230 206 218 210 211 212 216 220 213 206 206 206 208 216 240 227 208 202 197 195 195 196 193 197 204 212 202 191 201 202 194 191 190 201 200 203 196 208 212 220 235 216
246 223 206 217 223 214 209 223 209 201 206 200 206 208 255 239 226 201 194 195 194 195 195 198 200 202 205 209 195 192 195 189 193 181 201 202 204 209 208 215 220 236 216 221
230 219 207 215 213 213 218 217 211 202 198 199 209 231 201 202 198 200 197 196 194 198 200 201 203 207 187 191 194 196 194 194 182 201 193 208 204 213 209 220 236 214 232 234
222 213 209 209 217 214 218 214 207 200 197 206 214 203 198 200 201 200 198 198 198 200 199 200 205 216 191 196 200 194 192 185 202 200 209 200 213 206 217 236 212 234 235 247
225 211 210 208 211 211 213 209 205 201 203 172 174 208 200 199 202 200 198 198 200 195 201 204 191 197 189 192 199 182 189 200 198 209 201 208 210 217 235 216 236 237 240 261
230 209 209 206 203 210 203 207 203 201 197 200 199 201 203 200 199 202 200 194 198 199 201 195 194 193 197 198 183 193 199 198 208 203 209 211 222 234 221 236 237 246 265 267
227 210 208 204 200 204 211 194 207 205 198 202 195 195 194 196 199 200 201 202 199 201 201 192 190 195 195 203 197 204 201 206 203 213 210 218 226 224 235 236 247 267 263 273
230 212 215 205 203 204 209 210 207 206 206 200 199 198 197 198 198 198 198 193 204 196 205 197 196 200 200 201 194 205 203 210 213 212 219 225 229 234 235 246 257 270 267 270
232 226 210 207 201 209 204 201 209 209 203 203 201 200 201 201 199 205 201 202 200 206 194 193 201 196 204 192 205 203 215 207 219 218 238 229 234 236 250 255 268 267 273 277
233 228 219 216 205 200 207 212 204 206 205 205 204 204 203 206 206 202 197 207 199 192 192 203 194 210 205 202 213 208 211 219 218 235 231 238 230 253 256 269 272 266 280 274